Simultaneous Nadir Overpasses (SNOs) Predictions

Prediction of SNOs between GOES-16 and TERRA Satellite Orbit:

Table of predicted SNOs for the next 14.0 days since TLE Epoch: 6/8/2017
Index Date Time (GOES-16) GOES-16 Lat,Lon TERRA Lat,Lon Distance(km) Time Diff (sec)
1 06/09/2017 16:28:30 0.01, -89.47 -0.04, -89.19 31.74 80
2 06/11/2017 16:16:19 0.01, -89.48 -0.68, -86.24 368.70 80
3 06/12/2017 04:37:43 -0.01, -89.48 -0.44, -91.43 221.76 80
4 06/14/2017 04:22:52 -0.01, -89.49 0.20, -88.47 115.44 80
5 06/14/2017 16:44:07 0.01, -89.49 0.87, -93.63 470.45 80
6 06/16/2017 04:10:41 0.00, -89.50 0.84, -85.52 452.68 80
7 06/16/2017 16:31:56 -0.00, -89.51 0.23, -90.68 133.10 80
8 06/18/2017 16:22:26 -0.01, -89.52 -0.41, -87.73 204.68 80
9 06/19/2017 04:43:49 0.01, -89.53 -0.70, -92.92 385.04 80
10 06/21/2017 04:31:37 -0.00, -89.54 -0.11, -89.95 47.02 80




NCC Satellite Simultaneous Nadir Overpasses (SNOs) Prediction Service
